Location: Katzenstein
(51.7484°N, 10.2155°E)
Time: 22:05:04
(UTC+00:00)

COSMOS 2428 - Pass Details

Date: 17 February 2020
Orbit: 846 x 856 km, 70.9° (Epoch: 05 April)

Event Time Altitude Azimuth Distance (km) Brightness Sun altitude
Exits shadow 02:46:28 35° 19° (NNE) 1,360 4.0 -34.6°
Drops below altitude 10° 02:49:43 10° 28° (NNE) 2,501 5.7 -34.2°
Sets 02:52:13 0° 31° (NNE) 3,441 6.6 -33.8°
